Location: Vista Encantada
(35.1109°N, 106.5681°W)
Time: 19:17:20
(UTC+00:00)

Nauka - Pass Details

Date: 07 October 2021
Orbit: 417 x 423 km, 51.6° (Epoch: 24 October)

Event Time Altitude Azimuth Distance (km) Brightness Sun altitude
Rises 02:58:13 0° 290° (WNW) 2,360 ? -28.4°
Reaches altitude 10° 03:01:23 10° 257° (WSW) 1,493 ? -29.0°
Enters shadow 03:02:09 12° 244° (WSW) 1,400 ? -29.2°
